Location: Kalberh�ni
(46.4610°N, 7.2453°E)
Time: 06:55:17
(UTC+00:00)

Cosmos 2333 Rocket - Pass Details

Date: 20 June 2021
Orbit: 841 x 861 km, 70.8° (Epoch: 28 July)

Event Time Altitude Azimuth Distance (km) Brightness Sun altitude
Rises 20:16:09 0° 181° (S) 3,420 4.9 -7.2°
Reaches altitude 10° 20:18:45 10° 173° (S) 2,487 4.2 -7.5°
Maximum altitude 20:23:59 38° 107° (ESE) 1,276 2.8 -8.1°
Drops below altitude 10° 20:29:14 10° 41° (NE) 2,492 4.8 -8.7°
Sets 20:31:49 0° 33° (NNE) 3,429 5.6 -9.0°
